iso_date,epoch_date,Year,Hour,Min,DOY,POS_DOY,Lat,Lon,BP,Ts,Ta,has_bp,has_ts,has_ta,BuoyID,Buoy_Type,Buoy_Owner,Logistics,Hemisphere
2021-09-20T18:00:00Z,1632160800,2021,18,0,263.75,263.75,63.833,-22.162,1003.2,-5.0,-999.0,yes,yes,no,300234066215730,BD2VHI,AOML,UNKNOWN,North
2021-09-20T21:00:00Z,1632171600,2021,21,0,263.875,263.875,63.833,-22.162,1004.9,-5.0,-999.0,yes,yes,no,300234066215730,BD2VHI,AOML,UNKNOWN,North
2021-09-21T00:00:00Z,1632182400,2021,0,0,264.0,264.0,63.833,-22.162,1003.2,-5.0,-999.0,yes,yes,no,300234066215730,BD2VHI,AOML,UNKNOWN,North
2021-09-21T03:00:00Z,1632193200,2021,3,0,264.125,264.125,63.833,-22.162,997.2,-5.0,-999.0,yes,yes,no,300234066215730,BD2VHI,AOML,UNKNOWN,North
2021-09-21T06:00:00Z,1632204000,2021,6,0,264.25,264.25,63.833,-22.162,987.1,-5.0,-999.0,yes,yes,no,300234066215730,BD2VHI,AOML,UNKNOWN,North
2021-09-21T09:00:00Z,1632214800,2021,9,0,264.375,264.375,63.833,-22.162,971.7,-5.0,-999.0,yes,yes,no,300234066215730,BD2VHI,AOML,UNKNOWN,North
2021-09-21T12:00:00Z,1632225600,2021,12,0,264.5,264.5,63.833,-22.162,960.4,-5.0,-999.0,yes,yes,no,300234066215730,BD2VHI,AOML,UNKNOWN,North
2021-09-21T15:00:00Z,1632236400,2021,15,0,264.625,264.625,63.833,-22.162,974.0,-5.0,-999.0,yes,yes,no,300234066215730,BD2VHI,AOML,UNKNOWN,North
2021-09-21T18:00:00Z,1632247200,2021,18,0,264.75,264.75,63.833,-22.162,982.5,-5.0,-999.0,yes,yes,no,300234066215730,BD2VHI,AOML,UNKNOWN,North
2021-09-21T21:00:00Z,1632258000,2021,21,0,264.875,264.875,63.833,-22.162,987.7,-5.0,-999.0,yes,yes,no,300234066215730,BD2VHI,AOML,UNKNOWN,North
2021-09-22T00:00:00Z,1632268800,2021,0,0,265.0,265.0,63.833,-22.162,990.0,-5.0,-999.0,yes,yes,no,300234066215730,BD2VHI,AOML,UNKNOWN,North
2021-09-22T03:00:00Z,1632279600,2021,3,0,265.125,265.125,63.833,-22.162,991.0,-5.0,-999.0,yes,yes,no,300234066215730,BD2VHI,AOML,UNKNOWN,North
2021-09-22T06:00:00Z,1632290400,2021,6,0,265.25,265.25,63.833,-22.162,990.9,-5.0,-999.0,yes,yes,no,300234066215730,BD2VHI,AOML,UNKNOWN,North
2021-09-22T09:00:00Z,1632301200,2021,9,0,265.375,265.375,63.833,-22.162,993.4,-5.0,-999.0,yes,yes,no,300234066215730,BD2VHI,AOML,UNKNOWN,North
2021-09-22T12:00:00Z,1632312000,2021,12,0,265.5,265.5,63.832,-22.162,993.0,-5.0,-999.0,yes,yes,no,300234066215730,BD2VHI,AOML,UNKNOWN,North
2021-09-22T15:00:00Z,1632322800,2021,15,0,265.625,265.625,63.832,-22.162,992.2,-5.0,-999.0,yes,yes,no,300234066215730,BD2VHI,AOML,UNKNOWN,North
2021-09-22T18:00:00Z,1632333600,2021,18,0,265.75,265.75,63.833,-22.162,994.6,-5.0,-999.0,yes,yes,no,300234066215730,BD2VHI,AOML,UNKNOWN,North
2021-09-22T21:00:00Z,1632344400,2021,21,0,265.875,265.875,63.833,-22.162,999.4,-5.0,-999.0,yes,yes,no,300234066215730,BD2VHI,AOML,UNKNOWN,North
2021-09-23T00:00:00Z,1632355200,2021,0,0,266.0,266.0,63.832,-22.162,1002.5,-5.0,-999.0,yes,yes,no,300234066215730,BD2VHI,AOML,UNKNOWN,North
2021-09-23T03:00:00Z,1632366000,2021,3,0,266.125,266.125,63.832,-22.162,1003.1,-5.0,-999.0,yes,yes,no,300234066215730,BD2VHI,AOML,UNKNOWN,North
2021-09-23T06:00:00Z,1632376800,2021,6,0,266.25,266.25,63.833,-22.162,1002.1,-5.0,-999.0,yes,yes,no,300234066215730,BD2VHI,AOML,UNKNOWN,North
2021-09-23T09:00:00Z,1632387600,2021,9,0,266.375,266.375,63.833,-22.162,997.6,-5.0,-999.0,yes,yes,no,300234066215730,BD2VHI,AOML,UNKNOWN,North
2021-09-23T12:00:00Z,1632398400,2021,12,0,266.5,266.5,63.832,-22.162,992.5,-5.0,-999.0,yes,yes,no,300234066215730,BD2VHI,AOML,UNKNOWN,North
2021-09-23T15:00:00Z,1632409200,2021,15,0,266.625,266.625,63.833,-22.162,985.5,-5.0,-999.0,yes,yes,no,300234066215730,BD2VHI,AOML,UNKNOWN,North
2021-09-23T18:00:00Z,1632420000,2021,18,0,266.75,266.75,63.833,-22.162,982.7,-5.0,-999.0,yes,yes,no,300234066215730,BD2VHI,AOML,UNKNOWN,North
2021-09-23T21:00:00Z,1632430800,2021,21,0,266.875,266.875,63.833,-22.162,984.1,-5.0,-999.0,yes,yes,no,300234066215730,BD2VHI,AOML,UNKNOWN,North
2021-09-24T00:00:00Z,1632441600,2021,0,0,267.0,267.0,63.833,-22.162,988.3,-5.0,-999.0,yes,yes,no,300234066215730,BD2VHI,AOML,UNKNOWN,North
2021-09-24T03:00:00Z,1632452400,2021,3,0,267.125,267.125,63.833,-22.162,990.6,-5.0,-999.0,yes,yes,no,300234066215730,BD2VHI,AOML,UNKNOWN,North
2021-09-24T06:00:00Z,1632463200,2021,6,0,267.25,267.25,63.833,-22.162,992.5,-5.0,-999.0,yes,yes,no,300234066215730,BD2VHI,AOML,UNKNOWN,North
2021-09-24T09:00:00Z,1632474000,2021,9,0,267.375,267.375,63.833,-22.162,994.1,-5.0,-999.0,yes,yes,no,300234066215730,BD2VHI,AOML,UNKNOWN,North
2021-09-24T12:00:00Z,1632484800,2021,12,0,267.5,267.5,63.832,-22.162,995.8,-5.0,-999.0,yes,yes,no,300234066215730,BD2VHI,AOML,UNKNOWN,North
2021-09-24T15:00:00Z,1632495600,2021,15,0,267.625,267.625,63.832,-22.162,996.6,-5.0,-999.0,yes,yes,no,300234066215730,BD2VHI,AOML,UNKNOWN,North
2021-09-24T18:00:00Z,1632506400,2021,18,0,267.75,267.75,63.833,-22.162,996.9,-5.0,-999.0,yes,yes,no,300234066215730,BD2VHI,AOML,UNKNOWN,North
2021-09-24T21:00:00Z,1632517200,2021,21,0,267.875,267.875,63.833,-22.162,997.4,-5.0,-999.0,yes,yes,no,300234066215730,BD2VHI,AOML,UNKNOWN,North
2021-09-25T00:00:00Z,1632528000,2021,0,0,268.0,268.0,63.832,-22.162,997.1,-5.0,-999.0,yes,yes,no,300234066215730,BD2VHI,AOML,UNKNOWN,North
2021-09-25T03:00:00Z,1632538800,2021,3,0,268.125,268.125,63.833,-22.162,996.4,-5.0,-999.0,yes,yes,no,300234066215730,BD2VHI,AOML,UNKNOWN,North
2021-09-25T06:00:00Z,1632549600,2021,6,0,268.25,268.25,63.833,-22.162,995.1,-5.0,-999.0,yes,yes,no,300234066215730,BD2VHI,AOML,UNKNOWN,North
2021-09-25T09:00:00Z,1632560400,2021,9,0,268.375,268.375,63.833,-22.162,995.2,-5.0,-999.0,yes,yes,no,300234066215730,BD2VHI,AOML,UNKNOWN,North
2021-09-25T12:00:00Z,1632571200,2021,12,0,268.5,268.5,63.832,-22.162,994.6,-5.0,-999.0,yes,yes,no,300234066215730,BD2VHI,AOML,UNKNOWN,North
2021-09-25T15:00:00Z,1632582000,2021,15,0,268.625,268.625,63.833,-22.162,993.6,-5.0,-999.0,yes,yes,no,300234066215730,BD2VHI,AOML,UNKNOWN,North
2021-09-25T18:00:00Z,1632592800,2021,18,0,268.75,268.75,63.833,-22.162,993.4,-5.0,-999.0,yes,yes,no,300234066215730,BD2VHI,AOML,UNKNOWN,North
2021-09-25T21:00:00Z,1632603600,2021,21,0,268.875,268.875,63.833,-22.162,993.0,-5.0,-999.0,yes,yes,no,300234066215730,BD2VHI,AOML,UNKNOWN,North
2021-09-26T00:00:00Z,1632614400,2021,0,0,269.0,269.0,63.833,-22.162,992.4,-5.0,-999.0,yes,yes,no,300234066215730,BD2VHI,AOML,UNKNOWN,North
2021-09-26T03:00:00Z,1632625200,2021,3,0,269.125,269.125,63.833,-22.162,991.5,-5.0,-999.0,yes,yes,no,300234066215730,BD2VHI,AOML,UNKNOWN,North
2021-09-26T06:00:00Z,1632636000,2021,6,0,269.25,269.25,63.833,-22.162,990.3,-5.0,-999.0,yes,yes,no,300234066215730,BD2VHI,AOML,UNKNOWN,North
2021-09-26T09:00:00Z,1632646800,2021,9,0,269.375,269.375,63.832,-22.162,989.6,-5.0,-999.0,yes,yes,no,300234066215730,BD2VHI,AOML,UNKNOWN,North
2021-09-26T12:00:00Z,1632657600,2021,12,0,269.5,269.5,63.832,-22.162,989.1,-5.0,-999.0,yes,yes,no,300234066215730,BD2VHI,AOML,UNKNOWN,North
2021-09-26T15:00:00Z,1632668400,2021,15,0,269.625,269.625,63.832,-22.162,988.6,-5.0,-999.0,yes,yes,no,300234066215730,BD2VHI,AOML,UNKNOWN,North
2021-09-26T18:00:00Z,1632679200,2021,18,0,269.75,269.75,63.833,-22.162,989.0,-5.0,-999.0,yes,yes,no,300234066215730,BD2VHI,AOML,UNKNOWN,North
2021-09-26T21:00:00Z,1632690000,2021,21,0,269.875,269.875,63.833,-22.162,990.1,-5.0,-999.0,yes,yes,no,300234066215730,BD2VHI,AOML,UNKNOWN,North
2021-09-27T00:00:00Z,1632700800,2021,0,0,270.0,270.0,63.833,-22.162,991.9,-5.0,-999.0,yes,yes,no,300234066215730,BD2VHI,AOML,UNKNOWN,North
2021-09-27T03:00:00Z,1632711600,2021,3,0,270.125,270.125,63.833,-22.162,993.5,-5.0,-999.0,yes,yes,no,300234066215730,BD2VHI,AOML,UNKNOWN,North
2021-09-27T06:00:00Z,1632722400,2021,6,0,270.25,270.25,63.833,-22.162,995.1,-5.0,-999.0,yes,yes,no,300234066215730,BD2VHI,AOML,UNKNOWN,North
2021-09-27T09:00:00Z,1632733200,2021,9,0,270.375,270.375,63.832,-22.162,997.3,-5.0,-999.0,yes,yes,no,300234066215730,BD2VHI,AOML,UNKNOWN,North
2021-09-27T12:00:00Z,1632744000,2021,12,0,270.5,270.5,63.832,-22.162,999.2,-5.0,-999.0,yes,yes,no,300234066215730,BD2VHI,AOML,UNKNOWN,North
2021-09-27T15:00:00Z,1632754800,2021,15,0,270.625,270.625,63.832,-22.162,998.7,-5.0,-999.0,yes,yes,no,300234066215730,BD2VHI,AOML,UNKNOWN,North
2021-09-27T18:00:00Z,1632765600,2021,18,0,270.75,270.75,63.833,-22.162,998.8,-5.0,-999.0,yes,yes,no,300234066215730,BD2VHI,AOML,UNKNOWN,North
2021-09-27T21:00:00Z,1632776400,2021,21,0,270.875,270.875,63.833,-22.162,999.4,-5.0,-999.0,yes,yes,no,300234066215730,BD2VHI,AOML,UNKNOWN,North
2021-09-28T00:00:00Z,1632787200,2021,0,0,271.0,271.0,63.833,-22.162,998.7,-5.0,-999.0,yes,yes,no,300234066215730,BD2VHI,AOML,UNKNOWN,North
2021-09-28T03:00:00Z,1632798000,2021,3,0,271.125,271.125,63.833,-22.162,997.3,-5.0,-999.0,yes,yes,no,300234066215730,BD2VHI,AOML,UNKNOWN,North
2021-09-28T06:00:00Z,1632808800,2021,6,0,271.25,271.25,63.833,-22.162,996.4,-5.0,-999.0,yes,yes,no,300234066215730,BD2VHI,AOML,UNKNOWN,North
2021-09-28T09:00:00Z,1632819600,2021,9,0,271.375,271.375,63.833,-22.162,996.0,-5.0,-999.0,yes,yes,no,300234066215730,BD2VHI,AOML,UNKNOWN,North
2021-09-28T12:00:00Z,1632830400,2021,12,0,271.5,271.5,63.832,-22.162,996.6,-5.0,-999.0,yes,yes,no,300234066215730,BD2VHI,AOML,UNKNOWN,North
2021-09-28T15:00:00Z,1632841200,2021,15,0,271.625,271.625,63.832,-22.162,996.7,-5.0,-999.0,yes,yes,no,300234066215730,BD2VHI,AOML,UNKNOWN,North
2021-09-28T18:00:00Z,1632852000,2021,18,0,271.75,271.75,63.833,-22.162,995.0,-5.0,-999.0,yes,yes,no,300234066215730,BD2VHI,AOML,UNKNOWN,North
2021-09-28T21:00:00Z,1632862800,2021,21,0,271.875,271.875,63.833,-22.162,995.2,-5.0,-999.0,yes,yes,no,300234066215730,BD2VHI,AOML,UNKNOWN,North
2021-09-29T00:00:00Z,1632873600,2021,0,0,272.0,272.0,63.833,-22.162,994.3,-5.0,-999.0,yes,yes,no,300234066215730,BD2VHI,AOML,UNKNOWN,North
2021-09-29T03:00:00Z,1632884400,2021,3,0,272.125,272.125,63.833,-22.162,995.3,-5.0,-999.0,yes,yes,no,300234066215730,BD2VHI,AOML,UNKNOWN,North
2021-09-29T06:00:00Z,1632895200,2021,6,0,272.25,272.25,63.833,-22.162,996.2,-5.0,-999.0,yes,yes,no,300234066215730,BD2VHI,AOML,UNKNOWN,North
2021-09-29T09:00:00Z,1632906000,2021,9,0,272.375,272.375,63.833,-22.162,998.2,-5.0,-999.0,yes,yes,no,300234066215730,BD2VHI,AOML,UNKNOWN,North
2021-09-29T12:00:00Z,1632916800,2021,12,0,272.5,272.5,63.832,-22.162,999.8,-5.0,-999.0,yes,yes,no,300234066215730,BD2VHI,AOML,UNKNOWN,North
2021-09-29T15:00:00Z,1632927600,2021,15,0,272.625,272.625,63.833,-22.162,1000.3,-5.0,-999.0,yes,yes,no,300234066215730,BD2VHI,AOML,UNKNOWN,North
2021-09-29T18:00:00Z,1632938400,2021,18,0,272.75,272.75,63.833,-22.162,1000.6,-5.0,-999.0,yes,yes,no,300234066215730,BD2VHI,AOML,UNKNOWN,North
2021-09-29T21:00:00Z,1632949200,2021,21,0,272.875,272.875,63.833,-22.162,1001.4,-5.0,-999.0,yes,yes,no,300234066215730,BD2VHI,AOML,UNKNOWN,North
2021-09-30T00:00:00Z,1632960000,2021,0,0,273.0,273.0,63.832,-22.162,1001.7,-5.0,-999.0,yes,yes,no,300234066215730,BD2VHI,AOML,UNKNOWN,North
2021-09-30T03:00:00Z,1632970800,2021,3,0,273.125,273.125,63.832,-22.162,1001.2,-5.0,-999.0,yes,yes,no,300234066215730,BD2VHI,AOML,UNKNOWN,North
2021-09-30T06:00:00Z,1632981600,2021,6,0,273.25,273.25,63.833,-22.162,1001.2,-5.0,-999.0,yes,yes,no,300234066215730,BD2VHI,AOML,UNKNOWN,North
2021-09-30T09:00:00Z,1632992400,2021,9,0,273.375,273.375,63.833,-22.162,1001.7,-5.0,-999.0,yes,yes,no,300234066215730,BD2VHI,AOML,UNKNOWN,North
2021-09-30T12:00:00Z,1633003200,2021,12,0,273.5,273.5,63.833,-22.162,1001.6,-5.0,-999.0,yes,yes,no,300234066215730,BD2VHI,AOML,UNKNOWN,North
2021-09-30T15:00:00Z,1633014000,2021,15,0,273.625,273.625,63.833,-22.162,1000.7,-5.0,-999.0,yes,yes,no,300234066215730,BD2VHI,AOML,UNKNOWN,North
2021-09-30T18:00:00Z,1633024800,2021,18,0,273.75,273.75,63.833,-22.162,1000.5,-5.0,-999.0,yes,yes,no,300234066215730,BD2VHI,AOML,UNKNOWN,North
2021-09-30T21:00:00Z,1633035600,2021,21,0,273.875,273.875,63.833,-22.162,1000.0,-5.0,-999.0,yes,yes,no,300234066215730,BD2VHI,AOML,UNKNOWN,North
2021-10-01T00:00:00Z,1633046400,2021,0,0,274.0,274.0,63.833,-22.162,998.4,-5.0,-999.0,yes,yes,no,300234066215730,BD2VHI,AOML,UNKNOWN,North
2021-10-01T03:00:00Z,1633057200,2021,3,0,274.125,274.125,63.833,-22.162,996.5,-5.0,-999.0,yes,yes,no,300234066215730,BD2VHI,AOML,UNKNOWN,North
2021-10-01T06:00:00Z,1633068000,2021,6,0,274.25,274.25,63.833,-22.162,995.4,-5.0,-999.0,yes,yes,no,300234066215730,BD2VHI,AOML,UNKNOWN,North
2021-10-01T09:00:00Z,1633078800,2021,9,0,274.375,274.375,63.833,-22.162,995.3,-5.0,-999.0,yes,yes,no,300234066215730,BD2VHI,AOML,UNKNOWN,North
2021-10-01T12:00:00Z,1633089600,2021,12,0,274.5,274.5,63.832,-22.162,995.0,-5.0,-999.0,yes,yes,no,300234066215730,BD2VHI,AOML,UNKNOWN,North
2021-10-01T15:00:00Z,1633100400,2021,15,0,274.625,274.625,63.833,-22.162,995.5,-5.0,-999.0,yes,yes,no,300234066215730,BD2VHI,AOML,UNKNOWN,North
2021-10-01T18:00:00Z,1633111200,2021,18,0,274.75,274.75,63.833,-22.162,996.0,-5.0,-999.0,yes,yes,no,300234066215730,BD2VHI,AOML,UNKNOWN,North
2021-10-01T21:00:00Z,1633122000,2021,21,0,274.875,274.875,63.833,-22.162,996.0,-5.0,-999.0,yes,yes,no,300234066215730,BD2VHI,AOML,UNKNOWN,North
2021-10-02T00:00:00Z,1633132800,2021,0,0,275.0,275.0,63.833,-22.162,995.8,-5.0,-999.0,yes,yes,no,300234066215730,BD2VHI,AOML,UNKNOWN,North
2021-10-02T03:00:00Z,1633143600,2021,3,0,275.125,275.125,63.833,-22.162,994.6,-5.0,-999.0,yes,yes,no,300234066215730,BD2VHI,AOML,UNKNOWN,North
2021-10-02T06:00:00Z,1633154400,2021,6,0,275.25,275.25,63.833,-22.162,994.8,-5.0,-999.0,yes,yes,no,300234066215730,BD2VHI,AOML,UNKNOWN,North
2021-10-02T09:00:00Z,1633165200,2021,9,0,275.375,275.375,63.833,-22.162,994.9,-5.0,-999.0,yes,yes,no,300234066215730,BD2VHI,AOML,UNKNOWN,North
2021-10-02T12:00:00Z,1633176000,2021,12,0,275.5,275.5,63.832,-22.162,994.6,-5.0,-999.0,yes,yes,no,300234066215730,BD2VHI,AOML,UNKNOWN,North
2021-10-02T15:00:00Z,1633186800,2021,15,0,275.625,275.625,63.832,-22.162,994.8,-5.0,-999.0,yes,yes,no,300234066215730,BD2VHI,AOML,UNKNOWN,North
2021-10-02T18:00:00Z,1633197600,2021,18,0,275.75,275.75,63.833,-22.162,994.4,-5.0,-999.0,yes,yes,no,300234066215730,BD2VHI,AOML,UNKNOWN,North
2021-10-02T21:00:00Z,1633208400,2021,21,0,275.875,275.875,63.833,-22.162,995.6,-5.0,-999.0,yes,yes,no,300234066215730,BD2VHI,AOML,UNKNOWN,North
2021-10-03T00:00:00Z,1633219200,2021,0,0,276.0,276.0,63.833,-22.162,994.3,-5.0,-999.0,yes,yes,no,300234066215730,BD2VHI,AOML,UNKNOWN,North
2021-10-03T03:00:00Z,1633230000,2021,3,0,276.125,276.125,63.833,-22.162,993.1,-5.0,-999.0,yes,yes,no,300234066215730,BD2VHI,AOML,UNKNOWN,North
2021-10-03T06:00:00Z,1633240800,2021,6,0,276.25,276.25,63.833,-22.162,992.3,-5.0,-999.0,yes,yes,no,300234066215730,BD2VHI,AOML,UNKNOWN,North
2021-10-03T09:00:00Z,1633251600,2021,9,0,276.375,276.375,63.833,-22.162,993.0,-5.0,-999.0,yes,yes,no,300234066215730,BD2VHI,AOML,UNKNOWN,North
2021-10-03T12:00:00Z,1633262400,2021,12,0,276.5,276.5,63.832,-22.162,991.9,-5.0,-999.0,yes,yes,no,300234066215730,BD2VHI,AOML,UNKNOWN,North
2021-10-03T15:00:00Z,1633273200,2021,15,0,276.625,276.625,63.833,-22.162,991.8,-5.0,-999.0,yes,yes,no,300234066215730,BD2VHI,AOML,UNKNOWN,North
2021-10-03T18:00:00Z,1633284000,2021,18,0,276.75,276.75,63.833,-22.162,993.0,-5.0,-999.0,yes,yes,no,300234066215730,BD2VHI,AOML,UNKNOWN,North
2021-10-03T21:00:00Z,1633294800,2021,21,0,276.875,276.875,63.833,-22.162,994.7,-5.0,-999.0,yes,yes,no,300234066215730,BD2VHI,AOML,UNKNOWN,North
2021-10-04T00:00:00Z,1633305600,2021,0,0,277.0,277.0,63.833,-22.162,995.6,-5.0,-999.0,yes,yes,no,300234066215730,BD2VHI,AOML,UNKNOWN,North
2021-10-04T03:00:00Z,1633316400,2021,3,0,277.125,277.125,63.833,-22.162,997.0,-5.0,-999.0,yes,yes,no,300234066215730,BD2VHI,AOML,UNKNOWN,North
2021-10-04T06:00:00Z,1633327200,2021,6,0,277.25,277.25,63.833,-22.162,997.9,-5.0,-999.0,yes,yes,no,300234066215730,BD2VHI,AOML,UNKNOWN,North
2021-10-04T09:00:00Z,1633338000,2021,9,0,277.375,277.375,63.833,-22.162,999.2,-5.0,-999.0,yes,yes,no,300234066215730,BD2VHI,AOML,UNKNOWN,North
2021-10-04T12:00:00Z,1633348800,2021,12,0,277.5,277.5,63.832,-22.162,1002.0,-5.0,-999.0,yes,yes,no,300234066215730,BD2VHI,AOML,UNKNOWN,North
2021-10-04T15:00:00Z,1633359600,2021,15,0,277.625,277.625,63.832,-22.162,1002.8,-5.0,-999.0,yes,yes,no,300234066215730,BD2VHI,AOML,UNKNOWN,North
2021-10-04T18:00:00Z,1633370400,2021,18,0,277.75,277.75,63.833,-22.162,1003.2,-5.0,-999.0,yes,yes,no,300234066215730,BD2VHI,AOML,UNKNOWN,North
2021-10-04T21:00:00Z,1633381200,2021,21,0,277.875,277.875,63.833,-22.162,1005.1,-5.0,-999.0,yes,yes,no,300234066215730,BD2VHI,AOML,UNKNOWN,North
2021-10-05T00:00:00Z,1633392000,2021,0,0,278.0,278.0,63.833,-22.162,1005.8,-5.0,-999.0,yes,yes,no,300234066215730,BD2VHI,AOML,UNKNOWN,North
2021-10-05T03:00:00Z,1633402800,2021,3,0,278.125,278.125,63.832,-22.162,1006.8,-5.0,-999.0,yes,yes,no,300234066215730,BD2VHI,AOML,UNKNOWN,North
2021-10-05T06:00:00Z,1633413600,2021,6,0,278.25,278.25,63.833,-22.162,1007.6,-5.0,-999.0,yes,yes,no,300234066215730,BD2VHI,AOML,UNKNOWN,North
2021-10-05T09:00:00Z,1633424400,2021,9,0,278.375,278.375,63.833,-22.162,1008.7,-5.0,-999.0,yes,yes,no,300234066215730,BD2VHI,AOML,UNKNOWN,North
2021-10-05T12:00:00Z,1633435200,2021,12,0,278.5,278.5,63.832,-22.162,1009.4,-5.0,-999.0,yes,yes,no,300234066215730,BD2VHI,AOML,UNKNOWN,North
2021-10-05T15:00:00Z,1633446000,2021,15,0,278.625,278.625,63.833,-22.162,1009.7,-5.0,-999.0,yes,yes,no,300234066215730,BD2VHI,AOML,UNKNOWN,North
2021-10-05T18:00:00Z,1633456800,2021,18,0,278.75,278.75,63.833,-22.162,1010.5,-5.0,-999.0,yes,yes,no,300234066215730,BD2VHI,AOML,UNKNOWN,North
2021-10-05T21:00:00Z,1633467600,2021,21,0,278.875,278.875,63.833,-22.162,1010.7,-5.0,-999.0,yes,yes,no,300234066215730,BD2VHI,AOML,UNKNOWN,North
2021-10-06T00:00:00Z,1633478400,2021,0,0,279.0,279.0,63.833,-22.162,1011.7,-5.0,-999.0,yes,yes,no,300234066215730,BD2VHI,AOML,UNKNOWN,North
2021-10-06T03:00:00Z,1633489200,2021,3,0,279.125,279.125,63.832,-22.162,1011.9,-5.0,-999.0,yes,yes,no,300234066215730,BD2VHI,AOML,UNKNOWN,North
2021-10-06T06:00:00Z,1633500000,2021,6,0,279.25,279.25,63.833,-22.162,1012.2,-5.0,-999.0,yes,yes,no,300234066215730,BD2VHI,AOML,UNKNOWN,North
2021-10-06T09:00:00Z,1633510800,2021,9,0,279.375,279.375,63.833,-22.162,1011.9,-5.0,-999.0,yes,yes,no,300234066215730,BD2VHI,AOML,UNKNOWN,North
2021-10-06T12:00:00Z,1633521600,2021,12,0,279.5,279.5,63.832,-22.162,1011.7,-5.0,-999.0,yes,yes,no,300234066215730,BD2VHI,AOML,UNKNOWN,North
2021-10-06T15:00:00Z,1633532400,2021,15,0,279.625,279.625,63.833,-22.162,1010.0,-5.0,-999.0,yes,yes,no,300234066215730,BD2VHI,AOML,UNKNOWN,North
2021-10-06T21:00:00Z,1633554000,2021,21,0,279.875,279.875,63.836,-22.437,1006.3,-5.0,-999.0,yes,yes,no,300234066215730,BD2VHI,AOML,UNKNOWN,North
2021-10-07T00:00:00Z,1633564800,2021,0,0,280.0,280.0,63.835,-22.436,1004.2,-5.0,-999.0,yes,yes,no,300234066215730,BD2VHI,AOML,UNKNOWN,North
2021-10-07T03:00:00Z,1633575600,2021,3,0,280.125,280.125,63.835,-22.436,1001.2,-5.0,-999.0,yes,yes,no,300234066215730,BD2VHI,AOML,UNKNOWN,North
2021-10-07T06:00:00Z,1633586400,2021,6,0,280.25,280.25,63.835,-22.436,997.4,-5.0,-999.0,yes,yes,no,300234066215730,BD2VHI,AOML,UNKNOWN,North
2021-10-07T09:00:00Z,1633597200,2021,9,0,280.375,280.375,63.838,-22.411,994.8,-5.0,-999.0,yes,yes,no,300234066215730,BD2VHI,AOML,UNKNOWN,North
2021-10-07T12:00:00Z,1633608000,2021,12,0,280.5,280.5,63.838,-22.41,993.3,-5.0,-999.0,yes,yes,no,300234066215730,BD2VHI,AOML,UNKNOWN,North
2021-10-07T15:00:00Z,1633618800,2021,15,0,280.625,280.625,63.838,-22.411,990.1,-5.0,-999.0,yes,yes,no,300234066215730,BD2VHI,AOML,UNKNOWN,North
2021-10-07T21:00:00Z,1633640400,2021,21,0,280.875,280.875,63.838,-22.411,986.0,-5.0,-999.0,yes,yes,no,300234066215730,BD2VHI,AOML,UNKNOWN,North
2021-10-08T00:00:00Z,1633651200,2021,0,0,281.0,281.0,63.838,-22.411,986.0,-5.0,-999.0,yes,yes,no,300234066215730,BD2VHI,AOML,UNKNOWN,North
2021-10-08T03:00:00Z,1633662000,2021,3,0,281.125,281.125,63.838,-22.411,990.1,-5.0,-999.0,yes,yes,no,300234066215730,BD2VHI,AOML,UNKNOWN,North
